Weather Roundup
Issued by NWS Chicago, IL

Home | Current Version | Previous Version | Graphics & Text | Print | Product List | Glossary On
Versions: 1 2 3 4 5 6 7 8 9 10 11 12 13 14 15 16 17 18 19 20 21 22 23 24 25 26 27 28 29 30 31 32 33 34 35 36 37 38 39 40 41 42 43 44 45 46 47 48 49 50
000
NZUS59 KLOT 050208
HRRLOT

CHICAGO AREA WEATHER ROUNDUP
NATIONAL WEATHER SERVICE CHICAGO/ROMEOVILLE IL
900 PM CDT SAT JUL 04 2015

NOTE: "FAIR" INDICATES FEW OR NO CLOUDS BELOW 12,000 FEET WITH NO
SIGNIFICANT WEATHER AND/OR OBSTRUCTIONS TO VISIBILITY.

* THESE STATIONS ARE NOT UNDER NWS QUALITY CONTROL. THEY ALSO MAY NOT
  REPORT WEATHER SUCH AS PRECIPITATION OR FOG.

ILZ005-006-012>014-019>023-050300-
NORTHEAST ILLINOIS

CITY           SKY/WX    TMP DP  RH WIND       PRES   REMARKS
OHARE          CLEAR     73  56  54 E8        29.99R
MIDWAY         CLEAR     74  57  55 E8        30.00R
AURORA         CLEAR     71  61  70 S3        30.01R
LANSING*       CLEAR     73  57  57 E3        30.01R
JOLIET*        CLEAR     68  63  84 CALM      30.01R
WAUKEGAN       CLEAR     64  56  75 CALM      29.99R
DUPAGE AIRPORT CLEAR     71  62  73 S3        30.00R
WHEELING       CLEAR     71  55  56 CALM      30.00S
KANKAKEE*      LGT RAIN  71  63  77 CALM      30.02R
MORRIS*        CLEAR     73  60  63 CALM      30.00R
LEWIS AIRPORT* CLEAR     71  59  67 SW5       30.01R
NORTHERLY IS     N/A     66  58  75 CALM        N/A
$$

WIZ051-052-058>065-066-070>072-050300-
SOUTHEAST WISCONSIN

CITY           SKY/WX    TMP DP  RH WIND       PRES   REMARKS
MILWAUKEE      MOCLDY    71  56  58 S6        29.98S
KENOSHA*       CLEAR     69  56  62 S6        29.99S
RACINE*        CLEAR     68  53  58 S5        30.00S
BURLINGTON     CLEAR     66  63  88 CALM      29.99R
WAUKESHA       CLEAR     73  61  64 CALM      29.99S
WEST BEND      CLEAR     70  61  73 CALM      29.99R
$$

INZ001>003-010>013-019-020-050300-
NORTHWEST INDIANA

CITY           SKY/WX    TMP DP  RH WIND       PRES   REMARKS
GARY*          CLEAR    N/A N/A N/A CALM      30.01R
MICHIGAN CITY* NOT AVBL
RENSSELAER*    NOT AVBL
VALPARAISO     CLEAR     69  62  78 E5        30.02R
$$

LMZ740>746-050300-
SOUTHERN LAKE MICHIGAN

STATION/POSITION TIME  SKY/WX   TEMP WIND        PRES    VSBY
                                AIR  DIR/SP/G
                 (UTC)          (F)  (DEG/KT/KT) (MB)    (MI)
HARRISON CRIB    0100            67  120/  4/  6   N/A
BURNHAM HARBOR   0200            67  130/  2       N/A
CALUMET HARBOR   0100            69   30/  3/  4   N/A
BURNS HARBOR     0100            70   70/  8/  9 1016.3R
MICHIGAN CITY    0100            72   40/  8/  8   N/A
$$

ABBREVIATIONS USED IN REMARKS
   TC - TEMPERATURE IN CELSIUS
  WCI - WIND CHILL INDEX
   HX - HEAT INDEX
  VSB - VISIBILITY
$$



USA.gov is the U.S. government's official web portal to all federal, state and local government web resources and services.